Location: Newark
(47.5989°N, 4.6950°E)
Time: 17:32:11
(UTC+00:00)

ISS - Visible Passes

Search period start: 19 November 2019 00:00
Search period end: 29 November 2019 00:00
Orbit: 412 x 421 km, 51.6° (Epoch: 19 November)

Date Brightness Start Highest point End Pass type
(mag) Time Alt. Az. Time Alt. Az. Time Alt. Az.
21 Nov -1.3 18:15:16 10° SSW 18:16:06 15° S 18:16:06 15° S visible
22 Nov -1.8 17:27:42 10° S 17:29:51 16° SE 17:29:57 16° SE visible
22 Nov -0.3 19:02:50 10° WSW 19:02:53 10° WSW 19:02:53 10° WSW visible
23 Nov -1.2 16:41:29 10° SE 16:41:41 10° SE 16:41:53 10° SE visible
23 Nov -2.4 18:14:31 10° SW 18:16:38 34° SSW 18:16:38 34° SSW visible
24 Nov -2.9 17:26:22 10° SSW 17:29:28 36° SE 17:30:19 30° ESE visible
24 Nov -0.4 19:02:49 10° W 19:03:14 13° W 19:03:14 13° W visible
25 Nov -2.2 16:38:26 10° SSW 16:41:11 23° SE 16:43:56 10° E visible
25 Nov -2.8 18:14:18 10° WSW 18:16:51 47° W 18:16:51 47° W visible
26 Nov -3.8 17:25:52 10° WSW 17:29:13 78° SSE 17:30:24 37° ENE visible
26 Nov -0.4 19:02:56 10° W 19:03:18 12° WNW 19:03:18 12° WNW visible
27 Nov -3.3 16:37:33 10° SW 16:40:49 52° SSE 16:43:54 11° ENE visible
27 Nov -2.5 18:14:20 10° W 18:16:48 38° NW 18:16:48 38° NW visible
28 Nov -3.5 17:25:45 10° W 17:29:04 59° NNW 17:30:16 34° NE visible
28 Nov -0.3 19:02:58 10° WNW 19:03:10 11° WNW 19:03:10 11° WNW visible
